Weather in Podbuzh

Ukraine / Lviv District     49°19′56″N   23°14′41″E
temp.,
°C
wind,
m/s
gust,
m/s
humid.,
%
clouds,
%
prec.,
mm/h
press.,
hPa
HPBL,
m
7 march, sun
sun723:00−6sw38811 0.0 1031200
02:00−6sw411781 0.0 1030303
05:00−5sw615710 0.0 1027490
08:00−4sw716700 0.0 1026728
11:00−1sw813630 0.0 1024822
14:00+1sw8126220 0.0 1021966
17:000sw814644 0.0 1018869
20:00−2sw715676 0.0 1019564
8 march, mon
mon823:00−3sw513720 0.0 1018382
02:00−3wsw4117838 0.0 1017339
05:00−3wsw4118389 0.0 1016734
08:00−3w498792 0.0 1017634
11:00−1nw2588100 0.6 1017513
14:00−1nnw4677100 2.1 1018850
17:00−2nnw366770 0.1 10181148
20:00−5nw128754 0.1 102134
9 march, tue
tue923:00−6w11900 0.0 102221
02:00−6wsw11890 0.0 102221
05:00−7sw119022 0.0 102221
08:00−5sw118461 0.0 102253
11:00−1n116495 0.0 1022971
14:00−1nne116398 0.1 1021963
17:00−2ne226899 0.1 1020770
20:00−5ese118381 0.1 102221
10 march, wed
wed1023:00−5sse118580 0.0 102221
02:00−5sw018589 0.0 102221
05:00−5ssw0185100 0.0 102121
08:00−5w018269 0.0 102241
11:000nne11630 0.0 1022957
14:00+1nne115543 0.0 10221266
17:000nne226091 0.0 1022915
20:00−4se117850 0.0 102421
11 march, thu
thu1123:00−4s22790 0.0 102431
02:00−4ssw24780 0.0 102495
05:00−3ssw412710 0.0 1022447
08:00−2ssw7156720 0.0 1022646
11:00+1sw91667100 0.0 1019891
14:00+2ssw91771100 0.0 10171056
17:00+2sw112078100 0.0 1015904
20:00+3sw101987100 0.3 1014937